Location: Caseificio
(44.7500°N, 11.0500°E)
Time: 23:58:59
(UTC+00:00)

CZ-2C R/B - Pass Details

Date: 26 May 2022
Orbit: 667 x 784 km, 98.3° (Epoch: 26 June)

Event Time Altitude Azimuth Distance (km) Brightness Sun altitude
Rises 02:32:25 0° 17° (NNE) 3,269 6.9 -10.0°
Reaches altitude 10° 02:34:49 10° 21° (NNE) 2,327 6.1 -9.7°
Maximum altitude 02:39:52 57° 100° (E) 894 3.1 -9.0°
Drops below altitude 10° 02:44:45 10° 179° (S) 2,248 4.6 -8.4°
Sets 02:47:01 0° 184° (S) 3,148 5.3 -8.1°
